| time (UTC) | temp F | wind direction | speed MPH | gust MPH | rain 1hr in | rain 24hr in | rain mn in | humidity % | barometer mb |
| 20260510223001 | 64 | 330 | 2.0 | 4.0 | 0.00 | 0.02 | 0.00 | 41 | 1018.0 |
| 20260510221501 | 65 | 336 | 2.0 | 4.0 | 0.00 | 0.02 | 0.00 | 40 | 1018.0 |
| 20260510220004 | 65 | 312 | 3.0 | 6.0 | 0.00 | 0.02 | 0.00 | 39 | 1018.1 |
| 20260510213002 | 65 | 314 | 3.0 | 6.0 | 0.00 | 0.02 | 0.00 | 39 | 1018.1 |
| 20260510211502 | 65 | 338 | 3.0 | 6.0 | 0.00 | 0.02 | 0.00 | 40 | 1017.9 |
| 20260510210007 | 65 | 313 | 4.0 | 10.0 | 0.00 | 0.02 | 0.00 | 39 | 1017.7 |
| 20260510203003 | 65 | 288 | 4.0 | 9.0 | 0.00 | 0.02 | 0.00 | 40 | 1017.5 |
| 20260510201502 | 65 | 325 | 3.0 | 9.0 | 0.00 | 0.02 | 0.00 | 40 | 1017.4 |
| 20260510193001 | 64 | 295 | 4.0 | 8.0 | 0.00 | 0.02 | 0.00 | 42 | 1017.6 |
| 20260510191501 | 64 | 305 | 2.0 | 6.0 | 0.00 | 0.02 | 0.00 | 42 | 1017.6 |
| 20260510190004 | 65 | 338 | 1.0 | 3.0 | 0.00 | 0.02 | 0.00 | 45 | 1017.7 |
| 20260510184501 | 65 | 39 | 1.0 | 5.0 | 0.00 | 0.02 | 0.00 | 47 | 1017.9 |
| 20260510183001 | 63 | 330 | 2.0 | 6.0 | 0.00 | 0.02 | 0.00 | 48 | 1017.9 |
| 20260510181501 | 64 | 326 | 3.0 | 6.0 | 0.00 | 0.02 | 0.00 | 50 | 1017.9 |
| 20260510180005 | 63 | 330 | 2.0 | 7.0 | 0.00 | 0.02 | 0.00 | 46 | 1017.8 |
| 20260510174502 | 63 | 341 | 2.0 | 7.0 | 0.00 | 0.02 | 0.00 | 48 | 1017.9 |
| 20260510173002 | 63 | 328 | 1.0 | 5.0 | 0.00 | 0.02 | 0.00 | 52 | 1017.9 |
| 20260510171502 | 63 | 52 | 1.0 | 5.0 | 0.00 | 0.02 | 0.00 | 50 | 1017.9 |
| 20260510170006 | 63 | 78 | 2.0 | 5.0 | 0.00 | 0.02 | 0.00 | 53 | 1017.9 |
| 20260510164503 | 62 | 57 | 2.0 | 5.0 | 0.00 | 0.02 | 0.00 | 50 | 1018.1 |
| 20260510163003 | 62 | 335 | 2.0 | 7.0 | 0.00 | 0.02 | 0.00 | 51 | 1017.6 |
| 20260510161502 | 62 | 49 | 2.0 | 4.0 | 0.00 | 0.02 | 0.00 | 58 | 1017.6 |
| 20260510160005 | 61 | 45 | 2.0 | 5.0 | 0.00 | 0.02 | 0.00 | 58 | 1017.4 |
| 20260510154502 | 60 | 335 | 2.0 | 5.0 | 0.00 | 0.02 | 0.00 | 62 | 1017.7 |
| 20260510153001 | 60 | 34 | 2.0 | 5.0 | 0.00 | 0.02 | 0.00 | 64 | 1017.6 |
| 20260510151501 | 59 | 53 | 2.0 | 7.0 | 0.00 | 0.02 | 0.00 | 65 | 1017.4 |
| 20260510150005 | 59 | 34 | 2.0 | 5.0 | 0.00 | 0.02 | 0.00 | 66 | 1017.4 |
| 20260510144501 | 58 | 33 | 2.0 | 5.0 | 0.00 | 0.02 | 0.00 | 66 | 1017.3 |
| 20260510143001 | 58 | 22 | 2.0 | 4.0 | 0.00 | 0.02 | 0.00 | 67 | 1017.1 |
| 20260510141501 | 57 | 35 | 2.0 | 4.0 | 0.00 | 0.02 | 0.00 | 69 | 1016.9 |
| 20260510140004 | 56 | 48 | 2.0 | 6.0 | 0.00 | 0.02 | 0.00 | 70 | 1016.7 |
| 20260510131459 | 54 | 34 | 3.0 | 6.0 | 0.00 | 0.02 | 0.00 | 72 | 1016.2 |
| 20260510130004 | 54 | 34 | 3.0 | 6.0 | 0.00 | 0.02 | 0.00 | 72 | 1016.1 |
| 20260510124500 | 53 | 49 | 3.0 | 5.0 | 0.00 | 0.02 | 0.00 | 74 | 1015.7 |
| 20260510123000 | 53 | 29 | 2.0 | 5.0 | 0.00 | 0.02 | 0.00 | 76 | 1015.3 |
| 20260510121500 | 53 | 37 | 2.0 | 4.0 | 0.00 | 0.02 | 0.00 | 75 | 1015.3 |
| 20260510114501 | 52 | 4 | 0.0 | 2.0 | 0.00 | 0.02 | 0.00 | 77 | 1014.8 |
| 20260510113000 | 52 | 4 | 2.0 | 3.0 | 0.00 | 0.02 | 0.00 | 77 | 1014.5 |
| 20260510111502 | 52 | 7 | 0.0 | 2.0 | 0.00 | 0.02 | 0.00 | 77 | 1013.9 |
| 20260510110005 | 52 | 7 | 0.0 | 1.0 | 0.00 | 0.02 | 0.00 | 77 | 1013.6 |
| 20260510104501 | 53 | 7 | 0.0 | 0.0 | 0.00 | 0.02 | 0.00 | 77 | 1013.7 |
| 20260510103002 | 53 | 8 | 0.0 | 0.0 | 0.00 | 0.02 | 0.00 | 76 | 1013.7 |
| 20260510094500 | 53 | 7 | 0.0 | 0.0 | 0.00 | 0.02 | 0.00 | 75 | 1013.0 |
| 20260510093000 | 54 | 7 | 0.0 | 1.0 | 0.00 | 0.02 | 0.00 | 73 | 1012.6 |
| 20260510091501 | 54 | 7 | 0.0 | 2.0 | 0.00 | 0.02 | 0.00 | 75 | 1012.6 |
| 20260510090004 | 53 | 7 | 0.0 | 1.0 | 0.00 | 0.02 | 0.00 | 75 | 1012.2 |
| 20260510084459 | 53 | 7 | 1.0 | 2.0 | 0.00 | 0.02 | 0.00 | 78 | 1012.0 |
| 20260510083002 | 54 | 7 | 0.0 | 2.0 | 0.00 | 0.02 | 0.00 | 74 | 1011.9 |
| 20260510081501 | 54 | 7 | 0.0 | 2.0 | 0.00 | 0.02 | 0.00 | 76 | 1012.0 |
| 20260510080003 | 55 | 7 | 0.0 | 1.0 | 0.00 | 0.02 | 0.00 | 73 | 1011.9 |
| 20260510074501 | 55 | 7 | 0.0 | 1.0 | 0.00 | 0.02 | 0.00 | 70 | 1012.0 |
| 20260510071500 | 55 | 7 | 0.0 | 2.0 | 0.00 | 0.02 | 0.00 | 70 | 1011.1 |
| 20260510064500 | 56 | 352 | 0.0 | 2.0 | 0.00 | 0.02 | 0.00 | 70 | 1011.2 |
| 20260510063000 | 56 | 353 | 0.0 | 2.0 | 0.00 | 0.02 | 0.00 | 70 | 1011.2 |
| 20260510061501 | 56 | 358 | 1.0 | 2.0 | 0.00 | 0.02 | 0.00 | 69 | 1011.2 |
| 20260510060003 | 57 | 358 | 1.0 | 2.0 | 0.00 | 0.02 | 0.00 | 68 | 1010.9 |
| 20260510054500 | 57 | 29 | 0.0 | 1.0 | 0.00 | 0.02 | 0.00 | 67 | 1010.9 |
| 20260510053000 | 58 | 29 | 0.0 | 2.0 | 0.00 | 0.02 | 0.00 | 64 | 1010.6 |
| 20260510051502 | 58 | 29 | 1.0 | 3.0 | 0.00 | 0.02 | 0.00 | 63 | 1010.5 |
| 20260510050006 | 58 | 32 | 1.0 | 4.0 | 0.00 | 0.02 | 0.00 | 62 | 1010.2 |
| 20260510044505 | 59 | 26 | 1.0 | 3.0 | 0.00 | 0.02 | 0.00 | 63 | 1010.3 |
| 20260510041504 | 60 | 343 | 2.0 | 4.0 | 0.00 | 0.02 | 0.00 | 63 | 1009.9 |
| 20260510040007 | 61 | 335 | 2.0 | 3.0 | 0.00 | 0.02 | 0.00 | 66 | 1009.8 |
| 20260510033002 | 64 | 294 | 5.0 | 9.0 | 0.00 | 0.02 | 0.02 | 62 | 1009.3 |
| 20260510031502 | 65 | 288 | 4.0 | 7.0 | 0.00 | 0.02 | 0.02 | 63 | 1009.2 |
| 20260510030006 | 65 | 259 | 4.0 | 9.0 | 0.00 | 0.02 | 0.02 | 62 | 1008.8 |
| 20260510024503 | 66 | 266 | 5.0 | 8.0 | 0.00 | 0.02 | 0.02 | 60 | 1008.8 |
| 20260510023002 | 66 | 283 | 5.0 | 8.0 | 0.00 | 0.02 | 0.02 | 57 | 1008.5 |
| 20260510021502 | 66 | 273 | 4.0 | 7.0 | 0.00 | 0.02 | 0.02 | 63 | 1008.3 |
| 20260510020006 | 66 | 282 | 4.0 | 7.0 | 0.00 | 0.02 | 0.02 | 62 | 1008.0 |
| 20260510013002 | 67 | 284 | 4.0 | 8.0 | 0.00 | 0.02 | 0.02 | 71 | 1007.6 |
| 20260510011502 | 67 | 278 | 6.0 | 11.0 | 0.00 | 0.02 | 0.02 | 70 | 1007.3 |
| 20260510010006 | 67 | 305 | 6.0 | 10.0 | 0.00 | 0.02 | 0.02 | 72 | 1006.9 |
| 20260510004503 | 67 | 263 | 8.0 | 13.0 | 0.00 | 0.02 | 0.02 | 71 | 1006.7 |
| 20260510003004 | 68 | 256 | 8.0 | 13.0 | 0.00 | 0.02 | 0.02 | 70 | 1006.5 |
| 20260510001502 | 69 | 256 | 10.0 | 16.0 | 0.00 | 0.02 | 0.02 | 67 | 1006.3 |
| 20260510000007 | 69 | 257 | 9.0 | 17.0 | 0.00 | 0.02 | 0.02 | 68 | 1006.0 |
| 20260509234502 | 69 | 257 | 11.0 | 17.0 | 0.01 | 0.02 | 0.02 | 67 | 1006.1 |
| 20260509233003 | 70 | 297 | 9.0 | 17.0 | 0.01 | 0.02 | 0.02 | 67 | 1006.0 |
| 20260509231502 | 70 | 236 | 13.0 | 20.0 | 0.02 | 0.02 | 0.02 | 66 | 1006.0 |
| 20260509224502 | 68 | 252 | 5.0 | 11.0 | 0.01 | 0.01 | 0.01 | 71 | 1005.9 |